Regional Weather Roundup
Issued by NWS

Home | Current Version | Previous Version | Graphics & Text | Print | Product List | Glossary On
Versions: 1 2 3 4 5 6 7 8 9 10 11 12 13 14 15 16 17 18 19 20 21 22 23 24 25 26 27 28 29 30 31 32 33 34 35 36 37 38 39 40 41 42 43 44 45 46 47 48 49 50
000
ASUS43 KMPX 230610
RWRMN
WEATHER ROUNDUP FOR MINNESOTA
NATIONAL WEATHER SERVICE TWIN CITIES/CHANHASSEN MN
100 AM CDT MON APR 23 2018


NOTE: "FAIR" INDICATES FEW OR NO CLOUDS BELOW 12,000 FEET WITH NO
SIGNIFICANT WEATHER AND/OR OBSTRUCTIONS TO VISIBILITY. N/A MEANS
CURRENT SKY AND/OR WEATHER CONDITIONS ARE NOT AVAILABLE.

MNZ060>063-068>070-230700-
   Twin Cities Metro

CITY           SKY/WX    TMP DP  RH WIND       PRES   REMARKS
TWIN CITIES    FAIR      49  37  63 CALM      30.25S
6HR MIN TEMP:  47; 6HR MAX TEMP:  62;

ST PAUL        FAIR      43  37  79 CALM      30.26S
BLAINE         FAIR      43  36  75 CALM      30.25S
LAKEVILLE      FAIR      37  36  93 CALM      30.25S
EDEN PRAIRIE   FAIR      46  35  65 CALM      30.24S
6HR MIN TEMP:  46; 6HR MAX TEMP:  61;

SOUTH ST PAUL  FAIR      42  34  73 CALM      30.25S
LAKE ELMO      FAIR      37  36  93 CALM      30.26S
$$
MNZ001>005-007-008-013>017-022>024-027-028-230700-
   Northwest Minnesota

CITY           SKY/WX    TMP DP  RH WIND       PRES   REMARKS
BEMIDJI        FAIR      47  36  65 SW7       30.18S
HALLOCK        FAIR      45  41  87 SE7       30.09R
ROSEAU         FAIR      54  43  66 SW16      30.10S
WARROAD        FAIR      52  43  71 SW14G22   30.10S
THIEF RVR FALL MOCLDY    49  38  65 SW17      30.15R
CROOKSTON      MOCLDY    48  39  71 S16       30.14F
FOSSTON        MOCLDY    45  36  70 S14       30.18R
DETROIT LAKES  FAIR      43  34  70 SW7       30.20S
MOORHEAD       FAIR      45  37  76 S12       30.19S
PARK RAPIDS    FAIR      44  36  73 S10       30.19F
MAHNOMEN       FAIR      42  36  78 S12       30.18R
$$
MNZ006-009>011-018-025>026-230700-
   North Central Minnesota

CITY           SKY/WX    TMP DP  RH WIND       PRES   REMARKS
BAUDETTE       MOCLDY    51  39  63 SW10      30.11S
FLAG ISLAND    FAIR      46  39  76 SW9       30.07S
INTL FALLS     MOCLDY    45  32  60 SW6       30.14R
6HR MIN TEMP:  43; 6HR MAX TEMP:  61;

WASKISH        CLOUDY    52  36  54 S8        30.15S
BIG FORK       FAIR      39  30  70 S3        30.18S
LONGVILLE      FAIR      45  36  70 SW5       30.21R
GRAND RAPIDS   FAIR      43  31  62 SW3       30.22S
CRANE LAKE     FAIR      32  27  80 S3        30.18S
ORR            FAIR      45  28  53 S3        30.15F
COOK           FAIR      48  30  49 SW6       30.19S
WALKER         FAIR      45  35  67 SW8       30.19S
$$
MNZ012-019>021-037-230700-
   Northeast Minnesota

CITY           SKY/WX    TMP DP  RH WIND       PRES   REMARKS
DULUTH         FAIR      44  27  51 SW6       30.22S
6HR MIN TEMP:  44; 6HR MAX TEMP:  59;

ELY            FAIR      39  27  60 SW3       30.19S
HIBBING        FAIR      32  26  78 CALM      30.20R
EVELETH        FAIR      32  27  80 CALM      30.22S
DULUTH HARBOR  FAIR      36  30  80 CALM      30.24S
TWO HARBORS    FAIR      34  27  75 CALM      30.21S
SILVER BAY     FAIR      30  25  80 CALM      30.21S
GRAND MARAIS     N/A     33  24  69 CALM      30.22F
G MARAIS ARPRT FAIR      30  19  64 CALM      30.21F
$$
MNZ029>031-032-039>041-046>048-054>057-064-230700-
   West Central Minnesota

CITY           SKY/WX    TMP DP  RH WIND       PRES   REMARKS
FERGUS FALLS   FAIR      39  36  87 S8        30.19F
WHEATON        CLEAR     43  36  75 S5        30.23S
MORRIS         CLEAR     39  36  87 SE7       30.21S
ALEXANDRIA     FAIR      44  35  70 S5        30.23S
ELBOW LAKE     FAIR      40  35  84 E8        30.21F
WADENA         FAIR      39  36  87 CALM      30.21F
GLENWOOD       FAIR      41  37  87 S3        30.23S
APPLETON       CLEAR     45  34  65 S5        30.22S
BENSON         CLEAR     41  36  81 S3        30.24R
ORTONVILLE     CLEAR     37  36  93 CALM      30.22S
MADISON        CLEAR     41  37  87 S9        30.21F
WILLMAR        FAIR      39  37  93 CALM      30.27S
$$
MNZ033>034-036-042>043-049>051-058-059-230700-
   Central Minnesota

CITY           SKY/WX    TMP DP  RH WIND       PRES   REMARKS
ST CLOUD       FAIR      38  36  92 CALM      30.24S
6HR MIN TEMP:  37; 6HR MAX TEMP:  59;

SAUK CENTRE    FAIR      39  36  89 CALM      30.23F
PAYNESVILLE    FAIR      35  35  99 CALM      30.25S
AITKIN         FAIR      34  28  80 CALM      30.21S
PINE RIVER     FAIR      32  28  86 CALM      30.24F
BRAINERD       FAIR      35  27  72 CALM      30.23S
STAPLES        FAIR      37  32  81 CALM      30.22S
LONG PRAIRIE   FAIR      37  34  87 S5        30.23S
LITTLE FALLS   FAIR      36  30  80 CALM      30.23S
LITCHFIELD     FAIR      41  39  93 CALM      30.25S
BUFFALO        FAIR      39  35  84 CALM      30.25S
MAPLE LAKE     FAIR      36  35  96 CALM      30.26R
HUTCHINSON     FOG       37  37 100 CALM      30.25S VSB 1/2
$$
MNZ037-044-045-052-053-230700-
   East Central Minnesota

CITY           SKY/WX    TMP DP  RH WIND       PRES   REMARKS
PRINCETON      FAIR      36  30  80 CALM      30.25S
MORA           FAIR      34  30  86 CALM      30.25S
CAMBRIDGE      FAIR      37  28  70 CALM      30.25S
RUSH CITY      FAIR      37  33  85 CALM      30.24S
MOOSE LAKE     FAIR      34  28  80 CALM      30.21S
HINCKLEY       FAIR      32  30  93 CALM      30.24S
CLOQUET        FAIR      39  27  60 CALM      30.22S
MCGREGOR       FAIR      34  30  86 CALM      30.22F
$$
MNZ071>073-080-081-089-090-097-098-230700-
   Southwest Minnesota

CITY           SKY/WX    TMP DP  RH WIND       PRES   REMARKS
MONTEVIDEO     CLEAR     39  37  93 S6        30.24S
GRANITE FALLS  CLEAR     40  38  91 SE5       30.25S
CANBY          CLEAR     38  36  90 CALM      30.23S
MARSHALL       CLEAR     38  34  85 S3        30.24S
REDWOOD FALLS  CLEAR     42  39  89 CALM      30.23S
OLIVIA         CLEAR     41  37  87 CALM      30.24R
PIPESTONE      CLEAR    N/A N/A N/A SE6       30.22S
WINDOM         CLEAR     37  23  56 CALM      30.24R
WORTHINGTON    CLEAR     37  35  92 N5        30.24S
JACKSON        PTCLDY    37  34  87 CALM      30.23F
TRACY          CLEAR     38  35  87 CALM      30.23S
SLAYTON        CLEAR     35  32  90 NW3       30.24S
$$
MNZ065>067-074>077-082>085-091>093-230700-
   South Central Minnesota

CITY           SKY/WX    TMP DP  RH WIND       PRES   REMARKS
MANKATO        FAIR      42  36  79 NE6       30.25R
NEW ULM        CLEAR     45  37  76 CALM      30.24S
ST JAMES       CLEAR     37  36  93 CALM      30.25S
FAIRMONT       CLEAR     39  36  89 N6        30.24R
GLENCOE        FAIR      43  43 100 CALM      30.24S
OWATONNA       FAIR      41  37  87 CALM      30.24S
WASECA         FAIR      39  34  81 NE3       30.25S
ALBERT LEA     FAIR      39  36  87 CALM      30.23F
$$
MNZ078>079-086>088-094>096-230700-
   Southeast Minnesota

CITY           SKY/WX    TMP DP  RH WIND       PRES   REMARKS
ROCHESTER      FAIR      48  29  47 E6        30.24S
6HR MIN TEMP:  47; 6HR MAX TEMP:  56;

RED WING       FAIR      37  28  70 CALM      30.25R
STANTON        FAIR      37  35  89 S3        30.24S
DODGE CENTER   FAIR      43  34  70 E3        30.25R
WINONA         FAIR      41  36  81 CALM      30.24S
AUSTIN         FAIR      39  34  81 CALM      30.23F
PRESTON        FAIR      45  28  51 CALM      30.25S
$$
ABBREVIATIONS USED IN REMARKS
   TC - TEMPERATURES IN CELSIUS
  WCI - WIND CHILL INDEX
   HX - HEAT INDEX
  VSB - VISIBILITY
$$




USA.gov is the U.S. government's official web portal to all federal, state and local government web resources and services.